Location: Unspecified
(0.0000°N, 0.0000°E)
Time: 09:32:57
(UTC+00:00)

A-11 Canister half - Pass Details

Date: 08 August 2021
Orbit: 1515 x 1685 km, 47.2° (Epoch: 27 September)

Event Time Altitude Azimuth Distance (km) Brightness Sun altitude
Rises 22:36:59 0° 334° (NNW) 4,921 12.0 -63.0°
Reaches altitude 10° 22:40:24 10° 341° (NNW) 3,937 11.3 -63.7°
Enters shadow 22:40:31 10° 341° (NNW) 3,905 11.3 -63.7°
Maximum altitude 22:49:50 43° 50° (NE) 2,204 - -65.5°
Drops below altitude 10° 22:59:08 10° 118° (ESE) 3,893 - -67.2°
Sets 23:02:27 0° 124° (SE) 4,861 - -67.8°
